Temp
32 30 29 28 29 30 31 32 32 32 33 32 31 29 29 27 28 33 36 37 37 35 34 35 34 34 33 33 33 32 32 32 31 31 31 30 30 30 30 29 30 30 30 30 30 30 30 30 29 29 28 27 27 27 26 26 26 26 26 25 25 25 25 25 24 25 25 25 25 25 25 25 25 25 25 25 25 25 25 25 26 26 26 25 25 25
31 28 28 29 30 31 32 32 33 33 33 33 31 29 28 28 29 34 36 36 38 35 33 35 34 33 34 34 34 33 32 32 31 31 31 31 31 30 30 30 30 30 30 30 30 30 30 30 29 29 28 28 27 27 26 26 26 26 26 26 25 25 25 25 25 25 25 25 25 25 25 25 25 25 25 25 25 25 25 25 25 26 26 25 25 25
28 27 29 31 31 32 32 33 32 33 33 32 31 29 26 28 31 33 35 37 37 35 33 34 33 32 34 34 34 34 32 32 32 32 32 31 31 30 30 30 30 30 30 30 30 29 30 30 30 29 28 28 27 27 27 26 26 26 26 26 26 25 25 25 25 25 25 25 25 25 25 25 25 25 25 25 25 25 25 26 26 26 26 25 25 25
25 27 31 32 32 32 32 32 32 32 32 32 31 27 25 30 30 28 32 37 38 36 34 34 32 32 34 34 34 34 33 33 33 33 32 32 31 31 30 30 30 30 30 30 30 30 29 30 30 29 28 28 28 27 27 27 26 26 26 26 26 26 25 25 25 25 25 25 25 25 25 25 25 25 25 25 25 25 25 26 26 26 26 25 25 25
27 29 32 32 32 32 31 32 32 30 29 31 31 29 27 30 30 29 33 36 37 36 36 34 29 29 32 33 33 34 34 34 33 33 32 32 32 31 31 31 30 30 30 30 31 30 30 29 30 29 28 28 28 27 27 27 27 26 26 26 26 26 25 25 25 25 25 25 25 25 25 25 25 25 25 25 25 25 25 25 25 25 25 25 25 25
29 31 32 31 31 32 31 31 32 30 27 28 31 32 31 32 32 33 34 34 30 29 34 33 24 24 30 32 33 34 34 33 33 33 32 32 32 32 31 31 30 31 30 30 31 31 30 29 29 29 28 28 27 27 27 27 27 27 26 26 26 26 25 25 25 25 25 25 25 25 24 24 24 24 25 25 25 25 25 25 25 25 25 25 25 25
31 32 32 31 31 32 31 31 32 32 27 25 30 34 34 34 33 32 33 30 25 25 33 35 26 23 27 30 32 34 34 34 33 33 33 32 32 32 32 31 31 31 30 31 31 31 31 30 29 29 28 28 28 28 28 27 27 27 27 26 26 26 25 25 25 25 25 25 24 24 24 24 24 24 24 25 25 25 25 25 25 25 25 25 25 24
32 32 31 32 31 31 30 30 32 33 28 26 32 35 34 34 33 33 32 28 27 29 32 34 30 24 23 28 33 34 33 34 33 33 33 32 32 32 32 32 31 31 31 31 31 31 31 30 29 29 29 29 28 28 28 27 27 27 27 27 26 26 25 25 25 25 25 25 24 24 24 24 24 24 24 25 25 25 25 25 25 25 25 25 25 24
33 32 31 32 31 30 30 31 33 33 30 30 34 35 34 35 34 34 32 28 29 28 25 28 30 25 22 27 33 33 32 32 33 33 33 32 32 32 32 32 32 31 31 31 31 31 31 30 30 30 29 29 29 28 28 27 27 27 27 27 26 26 25 25 25 25 25 25 25 24 24 24 24 24 24 25 25 25 25 25 25 25 25 25 25 24
33 32 32 32 31 30 31 33 34 33 32 33 35 35 35 35 34 34 32 28 28 26 22 25 28 24 22 26 29 30 30 31 33 33 33 33 32 32 32 32 32 31 31 31 31 31 31 31 30 30 30 29 29 29 28 28 27 27 27 26 26 26 25 25 25 25 25 25 25 24 24 24 24 24 24 25 25 25 25 25 25 25 25 25 25 24
33 34 34 33 33 33 33 34 34 33 34 34 35 35 33 34 34 33 31 28 25 23 23 25 27 26 23 24 27 29 30 32 33 33 33 33 32 32 32 32 32 32 31 31 31 31 31 31 31 30 30 30 29 29 28 28 27 27 27 26 26 26 25 25 25 25 25 25 25 25 25 24 24 24 24 25 25 25 25 25 25 25 25 25 25 24
32 32 33 34 34 34 34 34 34 34 34 34 35 33 29 28 29 28 27 27 23 22 24 26 28 26 22 24 29 32 34 35 34 34 34 33 33 32 33 33 33 32 32 31 31 31 31 31 31 30 29 29 29 29 28 27 27 27 26 26 26 26 26 25 25 25 25 25 25 25 25 25 24 24 25 25 25 25 25 25 25 25 25 25 24 24
30 32 33 34 35 35 34 32 32 33 34 34 33 29 25 23 24 23 23 24 23 23 26 28 28 25 24 28 32 33 34 35 35 35 35 34 33 33 33 33 33 32 32 32 31 31 31 31 31 30 29 29 29 28 28 27 27 27 26 26 26 26 26 25 25 25 25 25 25 25 25 25 25 25 25 25 25 25 25 25 25 25 25 24 24 24
26 30 33 33 33 35 34 31 28 29 32 32 29 25 23 22 22 22 22 23 23 23 26 29 28 24 24 30 34 34 34 35 35 35 35 35 34 33 33 33 33 33 33 32 32 31 31 31 31 30 29 29 29 28 28 27 27 27 26 26 26 26 26 25 25 25 25 25 25 25 25 25 25 24 25 25 25 25 25 25 25 25 25 25 24 24
23 25 30 32 32 34 35 33 31 32 32 32 33 30 25 23 23 22 22 22 23 23 25 27 26 23 23 30 36 36 35 35 35 35 36 35 35 34 33 33 33 33 33 32 32 32 31 31 31 30 30 29 29 29 28 28 27 27 26 26 26 26 25 25 25 25 25 25 25 25 25 25 25 24 25 25 25 25 25 25 25 25 25 25 25 25
23 23 30 33 33 35 35 34 35 34 31 32 35 30 25 26 26 24 23 24 23 23 24 24 25 27 30 34 37 36 35 35 35 35 35 35 35 34 33 33 33 33 33 33 32 32 32 31 30 30 30 29 29 29 28 28 27 27 26 26 26 26 25 25 25 25 25 25 25 25 24 24 24 24 24 25 25 25 25 25 25 25 26 25 25 25
23 24 32 34 33 35 35 35 36 33 30 31 31 27 29 34 31 24 22 24 24 23 24 24 24 28 31 34 36 36 35 35 35 35 35 34 35 34 33 34 33 33 33 33 33 32 32 31 30 30 30 30 29 29 29 28 28 27 27 26 26 26 25 25 25 25 25 25 25 24 24 24 24 24 24 24 24 25 25 25 25 25 26 26 25 25
26 24 31 34 32 34 35 35 36 36 34 31 27 29 34 35 33 28 23 23 24 22 23 24 24 25 25 28 34 36 34 35 35 34 35 34 34 34 34 34 34 34 33 33 33 32 32 32 31 31 31 30 30 29 29 29 28 28 27 27 26 26 25 25 25 25 25 25 25 24 24 24 24 24 24 24 24 25 25 25 25 25 25 25 25 25
30 24 28 34 33 33 36 34 32 34 37 34 31 34 34 27 26 26 23 23 23 22 23 23 24 24 23 26 33 34 33 34 35 34 34 34 34 34 34 34 34 34 33 33 33 32 32 32 31 31 31 31 30 30 29 29 28 28 27 27 26 26 26 26 25 25 25 25 25 25 24 24 24 24 24 24 24 24 25 25 25 25 25 25 25 25
32 25 25 32 34 34 34 32 28 29 34 35 34 35 34 29 26 25 25 24 23 22 23 23 23 24 26 31 35 36 35 34 34 34 34 35 35 34 34 34 34 34 34 33 33 33 32 32 32 31 31 31 30 30 29 29 29 28 28 27 27 26 26 26 25 25 25 25 25 25 24 24 24 24 24 24 24 24 24 25 25 25 25 25 25 25
32 27 23 29 34 31 30 30 29 29 31 31 30 29 30 30 28 27 27 25 24 23 22 23 23 23 30 36 37 38 37 35 34 35 34 35 35 35 35 35 34 34 34 34 33 33 33 32 32 32 32 31 31 30 30 29 29 28 28 27 27 26 26 26 26 25 25 25 25 25 25 24 24 24 24 24 24 24 24 25 25 25 25 25 25 25
30 28 24 25 28 26 28 34 34 33 34 32 29 29 29 29 27 25 25 25 25 24 23 24 22 24 32 38 37 38 37 35 35 35 35 35 35 35 35 35 35 34 34 34 34 34 33 33 32 32 32 31 31 30 29 29 29 28 28 28 27 27 26 26 26 25 25 25 25 25 25 24 24 24 24 24 24 24 24 25 25 25 25 25 25 25
32 30 25 24 26 28 32 36 35 34 36 35 33 33 32 30 27 23 22 24 24 24 24 24 22 25 35 39 38 38 37 35 35 35 35 36 35 35 35 35 35 35 34 35 35 34 34 33 32 31 31 31 30 30 29 29 29 29 28 28 27 27 27 26 26 26 25 25 25 25 25 25 24 24 24 24 24 24 24 24 25 25 25 25 25 25
32 30 25 23 27 31 33 34 35 35 36 33 33 35 34 31 29 28 27 26 25 24 24 24 22 26 35 39 39 38 36 36 36 35 35 35 35 35 35 35 35 34 34 35 35 35 34 33 32 31 31 30 30 30 29 29 29 29 29 28 28 27 27 27 26 26 26 25 25 25 25 25 24 24 24 24 24 24 24 24 24 25 25 25 25 25
30 28 26 23 23 25 27 29 30 31 33 32 33 35 35 33 32 31 30 28 25 23 24 24 22 25 34 39 40 39 37 37 37 36 35 35 35 35 35 35 35 34 34 34 34 34 34 33 31 31 30 30 29 29 29 29 29 29 29 28 28 28 27 27 26 26 26 25 25 25 25 25 25 24 24 24 24 24 24 24 24 24 25 25 24 24
29 30 27 23 22 22 23 23 25 27 30 32 33 34 34 34 32 29 27 25 23 23 24 23 23 27 34 38 38 39 38 37 38 37 36 35 35 35 35 35 35 34 34 34 34 34 33 32 31 30 30 29 29 29 29 29 29 29 29 29 28 28 27 27 27 26 26 25 25 25 25 25 25 24 24 24 24 24 24 24 24 24 24 24 24 24
29 31 29 26 24 24 24 25 29 31 29 28 30 32 33 34 34 30 26 23 24 24 23 25 26 27 32 36 37 38 39 37 38 37 36 36 35 34 35 34 34 34 34 34 34 33 33 32 31 30 30 29 29 30 29 29 29 29 29 29 29 28 28 27 27 26 26 26 25 25 25 25 25 25 24 24 24 24 24 24 24 24 24 24 24 24
26 27 29 29 27 28 29 30 33 33 30 28 29 30 32 34 33 30 26 25 27 24 22 26 29 26 30 36 36 37 38 37 36 36 37 37 35 35 35 34 34 34 33 33 33 33 32 32 31 31 30 30 29 30 30 30 30 30 29 29 29 29 28 27 27 27 26 26 25 25 25 25 25 25 25 25 25 24 25 25 25 25 24 24 24 24
23 23 28 30 28 30 33 33 33 33 32 32 32 30 31 33 31 29 27 29 30 26 23 28 30 28 32 36 36 36 37 37 36 37 37 37 36 35 34 34 34 34 33 33 33 33 32 31 31 31 30 30 29 29 30 30 29 30 29 29 29 29 28 28 27 27 26 26 26 25 25 25 25 25 25 25 25 25 25 25 25 25 24 24 24 24
23 24 27 29 28 30 32 33 34 33 32 32 32 32 33 33 32 31 30 32 32 29 29 32 31 31 35 37 37 38 37 36 36 36 36 35 36 36 36 35 34 34 34 33 33 33 32 32 31 31 30 30 30 29 29 29 29 29 29 29 29 29 29 28 28 27 27 26 26 26 26 25 25 25 25 25 25 25 25 25 25 25 24 24 24 24
22 23 25 27 26 27 30 32 33 33 31 30 31 33 33 32 32 32 32 32 31 30 31 32 30 31 34 36 36 38 37 36 36 36 36 36 36 37 37 37 35 34 34 34 33 33 32 32 31 31 30 30 30 29 29 29 29 29 29 29 29 29 29 28 28 27 27 27 26 26 26 26 25 25 25 25 25 25 25 25 25 25 25 24 24 24
22 22 23 24 23 24 29 31 31 32 31 28 28 31 32 31 31 31 32 33 31 30 30 29 27 29 34 35 35 36 36 37 37 38 38 37 35 36 36 35 34 33 33 33 33 32 32 32 31 31 31 30 29 29 29 30 29 29 29 29 29 29 29 29 28 28 27 27 27 26 26 26 25 25 25 25 25 25 25 25 25 25 25 25 24 24
21 22 22 22 21 23 28 30 30 30 27 24 27 30 32 32 32 32 33 35 34 33 31 28 28 32 36 36 36 35 35 36 38 38 37 36 35 36 36 35 34 33 33 33 32 32 32 31 31 31 31 30 29 29 30 30 29 29 29 30 30 29 29 29 28 28 27 27 27 26 26 26 26 26 25 25 25 25 25 25 25 25 25 25 25 25
21 22 22 22 21 22 26 29 28 25 22 24 31 34 34 33 34 33 33 34 35 34 33 32 33 35 35 34 35 36 35 34 35 34 33 33 33 34 35 35 34 33 33 33 33 33 32 31 31 30 30 30 30 30 31 31 30 30 30 30 30 29 29 29 29 28 28 27 27 27 26 26 26 26 25 25 25 25 25 25 25 25 25 25 25 25
21 22 22 23 22 22 25 26 24 22 24 29 34 35 34 34 35 34 32 32 33 33 34 34 33 33 33 33 34 35 32 31 31 30 30 31 31 33 33 33 33 33 33 32 32 32 32 32 32 31 30 30 31 31 31 31 30 30 30 30 29 29 29 29 29 28 28 28 27 27 27 26 26 26 26 26 25 25 25 25 25 25 25 25 25 25
22 22 23 23 23 23 24 23 22 24 28 32 34 33 33 34 35 32 29 29 30 30 32 33 32 31 31 31 32 32 29 28 29 28 29 29 30 31 32 32 33 34 34 34 33 33 32 32 32 32 31 31 31 31 31 31 31 30 30 30 29 29 29 29 29 28 28 28 27 27 27 27 26 26 26 26 26 25 25 25 25 25 25 25 25 25
24 24 23 23 23 24 22 22 24 25 27 30 32 33 33 34 34 32 28 28 29 29 29 31 31 31 31 31 31 31 30 30 29 27 27 27 27 28 29 30 32 34 35 35 34 33 32 31 31 31 32 31 31 31 31 31 31 30 30 29 29 29 29 29 29 28 28 28 28 27 27 27 26 26 26 26 26 25 25 25 25 25 25 25 25 25
25 25 25 23 23 24 23 22 24 23 23 27 30 32 33 32 33 32 29 27 29 29 28 29 30 30 31 32 32 32 32 33 30 26 25 25 25 25 26 26 28 31 33 34 34 33 31 30 31 32 31 31 31 31 31 31 31 30 29 29 29 29 29 29 29 29 28 28 28 28 27 27 27 26 26 26 26 26 25 25 25 25 25 25 25 25
25 26 26 24 23 23 23 22 23 22 23 28 31 32 32 31 32 32 27 25 28 29 27 27 28 27 28 30 31 33 34 33 29 25 24 24 23 23 23 24 25 26 28 30 31 32 30 30 31 31 31 31 30 31 31 31 30 30 29 29 29 29 29 28 29 29 29 28 28 28 28 27 27 27 26 26 26 26 26 26 26 26 26 25 25 25
23 24 25 24 22 23 22 22 23 23 25 29 31 31 31 32 33 30 24 23 27 28 26 26 27 26 26 27 28 29 30 29 26 24 23 23 22 22 22 22 23 24 25 25 25 27 29 30 30 30 29 29 30 31 31 30 30 29 29 29 29 29 29 29 29 29 29 29 29 28 28 28 27 27 27 26 26 26 26 26 26 26 25 25 25 25
20 21 22 22 21 22 22 22 23 24 25 26 25 25 28 33 32 26 23 25 27 25 24 25 25 24 24 24 25 24 24 24 24 22 22 21 21 21 21 21 21 22 23 23 22 23 25 27 28 29 29 30 30 30 30 29 29 29 29 29 29 29 29 30 29 30 29 29 29 28 28 28 27 27 27 27 26 26 26 26 26 26 25 25 25 25
19 20 21 20 20 21 22 22 23 23 24 22 21 23 28 30 27 23 24 25 24 23 24 24 23 23 22 22 22 22 21 22 22 21 20 20 20 20 20 20 20 20 21 21 21 21 21 23 25 27 28 29 30 30 30 29 29 28 28 28 28 29 30 30 30 30 29 29 29 28 28 28 27 27 27 26 26 26 26 26 25 25 25 25 24 24
18 19 19 19 18 19 20 22 22 22 22 21 20 24 27 27 25 24 24 23 23 22 23 22 22 22 22 21 21 21 20 20 20 20 20 20 20 20 20 19 20 20 20 20 20 20 21 21 22 22 24 26 28 29 30 29 28 28 28 28 28 29 29 29 29 29 29 29 28 28 28 27 27 27 26 26 26 26 25 25 25 25 25 24 24 24
18 18 18 18 19 19 19 20 20 20 20 20 20 23 24 24 24 24 23 22 22 22 21 21 21 21 21 20 20 20 20 20 19 19 20 19 19 20 19 19 19 19 19 20 19 20 20 21 21 21 22 24 26 27 28 29 28 27 27 28 29 29 29 29 29 29 28 28 28 28 27 27 27 26 26 26 25 25 25 24 24 24 24 24 24 23
18 19 18 18 19 19 18 19 19 19 19 19 20 22 23 23 23 23 22 21 21 21 21 21 20 20 20 20 20 20 20 19 19 19 19 19 19 19 19 19 19 19 19 19 19 19 19 19 20 20 20 21 22 24 26 27 27 26 26 27 28 29 29 29 29 28 28 27 27 27 27 26 26 26 25 25 25 25 24 24 24 23 23 23 23 23
18 19 19 19 19 19 19 19 19 18 19 19 19 21 22 22 22 22 21 21 20 20 20 20 19 19 19 19 19 19 19 19 19 19 19 19 19 19 19 19 19 19 19 19 19 19 19 19 19 19 19 19 20 21 22 24 25 25 25 26 27 28 28 27 27 27 27 27 26 26 26 25 25 25 25 24 24 24 24 24 23 22 22 22 22 22
18 18 18 19 19 19 20 19 19 18 18 19 19 19 20 21 21 20 20 20 19 19 19 19 19 19 18 18 18 18 18 18 19 19 19 19 19 19 19 19 18 18 19 19 19 19 19 19 19 19 19 19 19 20 21 22 22 22 23 24 25 26 26 26 26 26 26 26 25 25 25 25 24 24 24 24 24 23 23 23 22 22 21 21 21 21
17 18 18 18 19 19 20 19 19 19 19 19 19 18 19 20 20 20 20 19 19 19 19 19 19 18 18 18 18 17 17 18 18 18 18 18 18 19 19 18 18 18 18 18 19 19 19 19 19 19 19 19 19 19 20 21 21 21 21 22 22 23 24 24 24 24 24 24 24 23 23 23 23 23 22 22 22 22 22 22 22 21 21 21 21 21
17 17 18 18 18 19 20 19 19 19 19 19 18 18 18 19 20 20 20 20 19 19 19 19 19 18 18 18 18 18 17 17 17 17 17 17 18 18 18 18 18 18 18 18 19 19 19 18 18 18 18 18 18 19 19 20 20 21 21 21 21 22 22 22 22 22 22 21 21 20 20 20 20 20 21 20 20 20 20 21 21 22 22 22 22 23
16 16 18 18 18 19 20 19 19 19 19 18 18 18 18 18 19 19 19 19 19 19 19 18 18 18 18 18 18 18 17 17 17 17 17 18 18 18 18 18 18 18 18 19 19 19 18 18 18 18 18 18 18 19 19 20 20 20 21 21 21 21 21 20 20 20 20 19 19 18 18 18 18 18 19 19 19 19 19 19 20 21 22 22 22 22
16 16 17 18 18 19 18 18 18 19 18 17 18 18 18 18 18 18 18 18 18 18 18 18 18 18 18 18 18 18 17 17 17 17 17 18 18 18 18 18 18 18 18 19 19 18 18 18 18 18 18 18 18 19 19 20 20 20 21 21 22 21 20 19 19 19 19 18 18 18 18 17 17 17 17 17 18 18 18 18 19 20 21 21 21 21
Height
731 747 751 749 750 748 745 743 744 745 745 747 751 754 754 755 751 737 728 718 714 732 739 735 740 742 742 740 738 739 740 745 749 751 753 754 756 758 759 760 761 762 760 759 763 766 768 770 772 775 778 780 783 785 787 789 791 793 796 798 800 803 805 808 809 811 813 814 816 817 818 819 820 822 823 824 825 826 827 828 829 829 830 831 832 833
733 749 748 741 742 740 739 739 739 742 743 746 750 753 753 752 747 732 727 720 711 728 739 732 738 741 738 736 734 736 742 745 745 748 751 751 752 754 755 757 756 756 756 757 761 763 765 768 770 772 774 777 779 781 783 785 787 790 792 795 797 799 802 804 806 808 810 811 812 813 815 817 818 820 821 822 823 824 825 826 827 828 829 830 831 832
744 746 739 733 734 734 736 735 738 742 743 747 748 753 756 747 742 733 725 720 713 725 737 734 739 741 733 730 730 731 736 737 735 737 742 744 748 751 752 752 752 754 756 757 758 759 761 764 766 769 770 772 774 777 780 782 785 787 789 791 793 796 798 800 803 805 807 808 810 812 813 815 817 818 819 820 822 823 824 825 826 827 828 829 829 830
750 741 730 728 729 733 738 736 739 743 743 746 747 754 755 741 744 746 731 722 715 719 729 732 737 739 734 732 729 726 726 728 729 729 732 735 740 743 744 745 747 751 754 754 754 754 757 760 763 765 766 768 771 774 777 779 782 783 784 787 789 792 794 797 800 802 804 807 809 811 813 814 816 817 818 820 821 821 822 823 824 825 826 827 828 829
741 730 721 725 728 732 739 738 739 747 748 745 742 747 749 737 740 743 732 725 720 719 721 730 748 749 740 742 738 727 724 726 727 729 732 732 732 734 736 739 741 743 745 748 749 750 751 754 757 760 762 764 767 769 771 774 776 778 780 782 785 788 791 794 796 799 802 805 807 810 812 814 815 816 817 817 818 819 820 821 822 823 824 825 826 827
732 721 717 726 729 729 737 739 736 742 750 749 738 734 735 732 734 734 731 733 738 740 726 730 765 768 744 742 741 730 729 730 728 729 732 732 731 733 736 737 737 737 738 739 741 743 745 748 752 755 758 760 763 764 766 769 772 774 777 779 782 785 787 790 793 796 799 801 804 806 808 810 811 812 812 812 813 815 816 818 819 821 822 824 825 825
721 716 717 725 728 729 734 736 730 731 747 751 733 723 725 727 731 733 734 741 752 752 728 722 754 768 752 744 737 729 730 731 729 729 729 730 731 731 732 733 734 735 735 736 736 738 740 743 747 750 753 755 757 759 762 765 768 771 774 776 779 781 784 787 789 793 796 798 800 802 803 805 806 807 807 809 810 812 813 815 818 819 820 822 823 823
712 716 720 721 725 729 733 733 725 723 741 743 722 718 724 724 728 730 733 743 745 740 731 722 734 756 760 746 731 726 730 732 731 730 727 726 727 726 726 726 727 729 730 733 735 735 736 738 740 744 747 749 752 755 759 762 765 768 770 773 775 778 780 783 786 789 791 794 796 798 800 802 803 804 805 806 808 810 812 814 816 817 819 820 821 822
705 716 719 718 725 729 727 724 717 717 731 728 714 716 720 720 723 723 729 739 735 740 749 735 730 755 762 741 728 728 731 734 731 727 724 723 722 721 720 720 720 722 723 725 728 730 731 732 734 737 740 744 747 751 755 758 761 764 766 769 772 775 777 780 783 785 788 790 792 794 797 799 800 802 803 805 807 809 810 812 814 815 817 818 819 820
702 704 704 711 721 722 718 713 708 715 722 714 709 714 715 717 720 720 729 734 736 749 757 739 732 754 759 741 736 738 736 734 727 719 716 715 715 715 714 714 714 716 718 719 721 722 723 725 728 731 734 738 742 746 749 753 756 760 763 767 770 772 774 777 779 782 784 787 789 791 793 795 797 799 802 804 805 807 808 809 811 813 814 816 817 818
697 692 693 701 706 705 706 705 703 707 709 705 709 717 720 721 720 724 727 729 746 758 749 733 727 742 754 744 735 733 724 718 717 715 713 710 711 710 708 709 709 711 713 714 716 716 718 720 723 727 730 734 737 741 744 748 752 756 759 763 766 768 771 773 776 778 781 783 785 787 789 791 793 796 799 801 802 804 805 807 808 810 811 813 814 816
699 699 697 692 689 691 698 703 700 698 699 705 713 721 731 734 729 733 732 733 757 761 738 725 721 731 748 740 725 717 705 698 702 706 708 707 706 704 702 702 702 705 707 709 712 714 715 719 721 725 727 730 734 737 740 744 747 751 754 757 761 764 766 769 772 775 778 780 782 783 785 787 790 792 795 797 798 800 801 803 805 807 809 810 812 814
706 703 696 690 684 684 697 707 706 700 700 708 716 725 741 751 750 753 750 745 755 749 724 716 721 729 733 718 708 707 699 693 692 691 694 695 697 697 697 697 696 699 702 705 708 710 712 716 718 721 724 726 730 732 735 739 742 746 749 752 756 759 762 765 768 771 774 776 778 780 782 784 787 789 791 793 795 796 798 800 802 804 805 807 809 811
717 706 694 696 690 679 689 705 712 710 706 710 717 726 742 754 764 769 760 752 751 737 716 709 720 731 726 706 695 695 691 687 684 682 681 682 686 690 690 690 692 694 697 700 702 705 707 710 712 714 718 721 724 727 730 734 737 741 745 748 751 754 757 760 763 766 769 772 774 777 779 781 784 786 788 790 791 793 795 797 799 800 802 804 805 807
729 722 700 695 691 679 682 690 696 700 703 705 703 713 729 734 746 757 753 752 749 735 719 715 723 730 722 701 682 678 678 677 677 675 673 674 678 682 685 687 690 692 693 695 697 700 701 702 705 708 712 715 718 721 725 729 733 736 740 743 746 750 753 756 759 762 764 767 770 773 776 778 781 783 785 787 788 790 792 794 796 797 799 801 802 804
722 719 690 680 678 673 679 678 676 688 702 700 692 706 718 710 716 732 735 733 733 733 726 717 716 710 696 681 668 667 670 671 673 672 673 677 677 680 686 687 688 688 689 690 693 695 696 697 699 702 706 709 712 716 720 723 727 731 734 738 741 745 748 751 755 757 760 763 767 770 772 775 777 780 782 784 786 788 790 791 793 795 797 798 800 802
714 709 682 676 676 669 673 672 668 681 697 697 696 704 699 688 699 722 730 720 721 738 731 713 710 701 689 683 671 668 673 671 673 674 674 677 677 681 685 683 683 684 683 685 687 689 691 692 694 696 699 704 707 711 714 717 721 725 729 733 737 741 745 747 750 753 756 759 763 766 769 772 774 777 779 781 783 785 787 789 791 792 794 796 798 800
700 704 682 677 683 670 661 666 665 664 674 691 700 693 683 686 694 708 728 728 730 744 732 711 712 709 705 700 680 675 681 677 674 675 674 675 677 679 680 677 677 677 678 680 680 682 685 687 689 691 694 697 701 704 708 712 716 720 724 728 732 736 740 743 747 750 753 755 759 762 765 768 771 773 776 778 780 783 785 787 788 789 791 793 795 797
685 703 689 671 678 670 657 669 679 665 659 672 681 674 681 704 710 709 723 732 737 746 734 716 712 708 706 699 682 680 684 678 674 675 674 675 676 675 674 673 672 672 674 676 677 679 680 681 684 686 689 692 695 699 703 707 713 717 721 724 728 731 734 738 742 745 749 751 754 758 761 765 768 770 773 776 778 781 782 784 785 786 788 790 792 794
676 699 698 671 665 668 664 675 688 681 667 664 669 671 677 691 702 705 710 716 726 738 735 724 717 706 693 682 674 675 675 673 673 673 672 671 668 667 667 668 669 669 671 673 673 674 675 676 678 680 683 686 690 695 699 705 709 712 717 721 724 728 731 735 738 741 745 748 751 754 758 762 765 768 771 773 776 778 779 781 782 783 785 787 789 791
673 689 698 680 665 670 674 672 676 679 677 676 680 683 682 683 688 696 697 696 706 723 729 729 725 705 678 665 665 663 663 665 666 666 666 662 659 659 659 660 663 664 665 667 668 669 669 670 672 674 678 682 686 692 697 701 705 708 713 717 720 724 728 731 734 737 741 744 748 751 754 758 762 765 768 770 773 774 776 778 779 780 782 784 786 788
674 682 691 687 676 677 673 658 655 661 664 670 677 678 681 684 690 703 708 696 691 704 712 718 722 700 665 654 655 652 654 657 656 657 659 656 653 653 652 653 655 658 660 661 662 663 664 666 668 671 675 680 685 690 694 697 701 705 709 711 715 719 722 725 729 732 736 740 744 747 750 755 758 762 765 767 769 771 772 774 775 777 779 780 782 784
658 670 683 686 677 671 662 647 645 648 647 656 663 664 672 679 685 701 713 702 692 696 695 702 712 691 655 644 646 646 648 649 649 650 652 650 648 647 648 649 650 651 653 654 655 657 659 661 664 668 673 678 681 685 689 693 697 700 702 706 711 714 716 720 724 728 732 736 740 743 747 751 754 758 761 763 765 767 768 770 772 774 775 777 779 781
651 665 678 683 674 662 654 646 642 641 644 655 657 655 663 672 675 682 689 689 691 694 694 705 712 687 652 639 639 641 644 644 643 644 646 647 645 643 644 644 646 648 649 650 651 653 655 658 662 666 671 674 677 681 685 688 691 695 699 703 706 708 712 716 720 724 728 732 735 739 743 746 749 753 756 759 761 762 764 766 768 770 771 773 776 777
653 661 672 685 690 683 674 668 662 654 651 654 654 651 653 659 668 673 676 683 691 691 691 704 708 684 655 640 637 639 641 641 641 639 641 644 643 641 641 641 644 646 647 648 650 652 654 658 662 665 667 669 673 677 680 683 687 691 695 698 701 704 708 712 716 720 723 727 731 735 738 741 744 747 750 753 756 758 760 763 764 766 768 770 772 774
650 650 658 677 692 695 689 681 671 662 656 652 650 650 650 653 663 672 678 689 696 691 688 694 694 678 657 646 643 640 638 640 640 637 638 640 640 638 638 640 642 643 645 647 648 651 654 657 660 662 663 665 668 672 675 679 683 686 690 693 697 701 705 709 712 716 719 723 726 729 732 735 738 741 745 748 751 754 756 759 760 762 764 766 768 771
650 642 642 652 662 667 667 662 652 648 653 656 653 652 651 651 655 665 678 687 688 688 689 683 679 674 662 652 649 643 638 639 639 637 636 637 638 638 636 637 638 640 642 643 644 648 652 655 658 658 659 661 663 666 670 673 677 681 685 689 693 697 701 705 708 711 715 718 721 724 727 729 732 735 739 743 746 749 752 755 757 758 760 762 765 767
663 656 643 638 642 642 642 643 639 639 645 650 651 652 651 649 652 662 673 674 673 685 691 677 670 674 665 655 652 645 637 638 639 637 634 632 635 637 636 637 639 640 641 642 644 647 650 652 654 654 656 657 659 663 665 669 672 676 680 684 688 693 697 700 704 706 710 713 716 718 720 724 727 730 734 738 742 745 748 751 753 754 756 759 762 764
676 669 647 636 636 634 632 633 632 635 639 639 642 647 648 648 652 658 663 663 663 674 679 668 665 668 660 651 650 642 635 635 634 631 628 627 630 634 636 640 643 643 642 642 643 645 646 648 649 650 652 654 657 660 663 667 670 673 677 681 684 689 692 695 699 702 705 709 710 712 715 719 723 726 730 734 737 741 744 746 749 751 753 756 758 761
676 667 648 640 636 630 630 629 626 631 637 637 637 640 641 643 645 648 653 655 654 658 660 658 660 660 651 643 639 633 629 630 628 625 625 626 627 629 633 639 642 642 641 640 640 640 641 643 644 646 649 651 654 657 660 664 667 669 673 676 680 684 686 691 695 697 701 702 703 707 712 716 719 722 726 729 732 736 739 742 745 748 750 753 755 758
680 672 655 647 641 632 627 627 625 628 634 638 637 635 636 639 642 643 647 650 654 657 656 656 660 658 646 637 632 628 626 627 627 626 625 625 624 624 628 633 635 636 636 635 636 637 637 638 640 643 646 648 651 653 656 660 662 665 668 672 676 678 682 686 690 693 695 696 699 704 708 711 715 718 722 725 728 731 734 738 742 745 748 750 752 755
684 678 664 660 659 642 624 625 628 624 629 639 638 634 635 638 640 641 640 643 648 653 655 659 664 658 642 632 630 629 627 627 627 625 624 623 623 624 626 629 631 631 632 633 635 636 637 637 638 640 642 644 646 649 653 655 658 662 664 667 670 673 678 682 685 688 690 692 696 701 704 707 710 714 717 720 724 727 730 735 739 741 744 746 749 751
684 681 674 675 676 652 625 623 626 630 644 647 632 626 631 633 634 636 635 634 633 638 648 654 652 642 631 627 628 629 630 629 626 624 625 625 623 623 623 626 628 628 628 631 633 634 635 635 635 636 637 638 641 645 647 650 654 657 658 660 663 668 674 677 679 682 685 688 693 696 699 703 706 709 712 715 719 723 728 732 735 737 740 742 744 747
682 681 678 678 679 661 631 619 628 647 659 642 613 608 618 623 627 633 634 631 626 627 633 635 631 625 623 626 627 627 630 631 628 627 627 626 625 623 621 622 624 624 624 626 626 626 627 628 630 631 632 634 636 639 641 645 648 649 651 655 659 665 669 671 674 677 680 683 688 691 694 698 701 704 707 711 715 720 724 728 730 733 736 738 741 743
680 680 677 672 672 661 635 625 644 659 647 620 603 601 604 609 615 625 633 632 627 626 626 626 627 625 623 624 623 624 629 631 629 629 629 627 626 623 622 621 620 620 622 622 622 622 622 624 627 629 630 631 632 633 637 641 644 646 649 653 656 660 662 665 668 671 675 679 682 686 690 693 695 699 702 707 712 716 719 722 725 728 731 734 736 738
673 674 671 665 662 656 642 638 648 645 622 606 605 603 602 608 613 625 641 641 631 630 629 627 628 626 625 626 623 624 628 626 627 631 630 628 628 625 624 624 621 619 620 619 620 620 620 621 622 624 625 626 628 631 633 636 639 642 646 650 653 655 657 660 664 667 671 674 677 681 684 687 690 694 698 703 707 710 714 716 719 723 727 729 732 734
658 662 664 661 655 651 650 644 635 630 622 614 611 606 603 608 610 619 641 646 633 630 629 627 628 627 624 624 623 623 622 623 634 643 637 632 632 629 626 624 620 619 618 616 616 616 616 617 618 620 622 623 625 628 629 632 635 638 642 646 649 652 654 657 660 662 665 668 671 675 678 682 686 689 693 698 701 704 706 710 713 718 722 725 727 729
643 646 652 657 651 644 648 647 639 642 639 624 614 605 597 600 601 605 630 646 636 628 629 627 628 629 625 621 620 619 619 628 647 654 645 638 635 631 629 627 623 620 618 615 614 613 613 615 616 618 621 623 625 626 627 631 634 636 640 643 646 650 653 655 656 657 660 663 666 670 674 677 681 684 688 692 694 697 700 704 708 712 716 719 721 723
635 633 638 648 651 646 647 648 645 647 638 618 609 601 595 599 598 602 636 658 641 628 631 631 629 631 628 624 620 618 625 641 655 656 648 642 638 634 633 630 627 624 621 617 616 614 613 614 616 617 620 621 623 625 627 631 634 636 638 640 642 646 649 651 651 652 654 656 660 664 669 672 676 679 682 685 688 691 695 699 702 706 710 714 716 718
644 640 639 645 650 649 648 643 636 633 626 613 607 603 597 594 593 615 657 668 642 630 634 631 631 633 631 627 625 628 637 649 654 652 645 641 638 635 634 633 630 628 625 621 618 616 614 614 615 616 618 619 619 621 625 628 631 633 635 636 639 642 643 644 645 646 648 651 655 660 663 666 669 672 676 679 683 687 691 695 698 702 705 709 712 715
661 655 651 654 658 657 652 642 632 629 627 622 619 613 601 593 603 634 659 652 636 636 636 631 633 636 633 631 633 639 646 648 647 647 643 638 637 635 634 634 633 630 628 626 622 619 616 615 614 614 615 617 619 622 625 627 629 630 630 632 635 636 636 637 639 643 646 650 653 656 658 661 663 666 669 674 678 683 688 691 695 698 701 704 708 711
674 667 664 669 675 672 659 642 634 634 631 628 626 614 600 604 624 642 644 635 634 638 635 633 637 637 636 637 639 642 647 645 644 645 642 638 637 636 634 633 632 631 630 628 625 621 619 618 617 615 615 617 618 620 622 625 628 630 631 632 633 632 631 632 636 641 645 647 650 652 654 656 659 662 666 670 675 680 684 688 691 694 697 701 704 708
677 676 678 683 685 684 673 655 650 651 642 634 633 621 610 618 630 632 631 633 635 634 634 637 639 637 638 641 641 643 644 644 644 644 641 639 637 636 635 634 632 632 631 629 628 625 621 621 620 619 619 618 619 619 619 621 624 626 628 630 632 634 635 637 638 639 641 644 646 648 650 653 655 659 663 666 671 675 680 685 689 692 695 698 701 704
674 677 685 687 684 688 688 675 668 667 655 644 642 635 625 625 625 622 627 634 635 634 635 638 640 640 639 640 642 643 643 643 644 643 641 641 639 637 637 635 633 633 631 630 630 627 624 623 622 622 622 621 621 621 620 620 621 623 624 626 628 631 634 638 640 641 641 642 644 646 648 650 653 656 659 663 668 673 677 682 687 690 693 695 698 702
672 670 677 681 677 680 684 676 667 663 656 648 643 637 629 626 624 623 628 634 637 638 638 638 642 643 641 641 643 644 644 645 645 643 642 642 641 640 639 638 636 635 633 631 631 629 628 626 624 624 625 625 624 623 622 621 621 621 622 623 624 625 627 631 635 638 640 641 642 644 646 649 651 654 656 660 665 669 675 680 684 688 692 694 696 700
669 666 669 674 673 672 672 668 663 661 658 651 645 639 634 632 630 627 629 635 640 641 640 642 645 646 645 645 646 648 650 650 648 647 646 644 643 642 642 641 640 638 636 635 634 633 632 630 628 627 627 627 627 625 624 624 623 622 622 622 622 622 623 625 629 633 637 640 642 643 644 647 651 654 655 659 664 667 671 676 681 686 690 693 696 700
670 667 669 671 673 673 673 669 665 665 663 657 651 646 642 641 640 636 635 639 642 642 643 645 647 649 650 651 651 654 656 654 653 652 650 648 647 646 644 644 643 640 639 638 637 637 636 633 631 630 629 629 628 626 625 625 624 623 624 624 624 624 623 623 624 626 629 634 641 646 647 647 650 653 656 658 662 667 670 674 679 684 688 692 696 699
673 670 670 671 674 675 673 669 666 664 662 659 658 656 652 650 651 648 644 643 644 645 647 648 649 651 652 653 655 656 658 658 658 656 654 651 650 647 646 645 644 642 641 640 640 639 638 636 634 633 631 630 629 627 626 625 624 623 623 623 624 624 624 624 624 625 625 627 635 645 652 652 651 652 655 658 660 664 669 673 677 682 686 690 694 697
675 674 672 673 675 674 671 670 668 667 666 664 663 662 658 656 656 657 655 651 648 648 649 650 651 651 650 653 655 655 657 659 658 656 654 653 651 649 648 646 644 643 642 642 641 641 639 638 636 634 632 632 630 628 627 626 626 625 623 623 623 623 623 622 622 625 626 627 631 640 649 654 655 652 653 656 659 662 667 672 676 681 685 690 693 696
678 678 674 673 676 675 672 671 670 671 674 673 669 666 664 661 660 662 661 658 654 652 651 651 651 650 649 651 653 653 656 659 658 656 655 654 653 652 650 648 646 645 644 644 644 643 641 639 637 634 633 632 631 630 630 629 629 628 626 625 624 624 625 622 619 620 624 627 631 635 640 649 658 658 653 653 657 661 667 673 678 682 686 690 695 698
679 678 675 675 676 673 670 669 667 669 674 674 670 666 666 666 668 668 665 662 660 658 654 651 650 651 652 653 653 653 656 659 659 657 657 657 656 654 652 651 650 648 646 646 645 644 643 642 640 637 635 634 633 633 632 631 630 629 627 626 624 623 628 629 620 612 617 627 633 636 639 645 655 661 658 654 656 661 668 675 681 685 689 693 696 699
Wind_Speed
5 5 7 8 7 6 7 7 8 8 8 8 7 6 8 8 7 10 9 6 12 11 9 11 12 14 17 20 20 20 19 17 18 17 16 16 15 15 16 16 17 17 16 19 24 29 32 32 33 35 35 37 37 37 40 41 41 40 39 38 36 37 38 37 36 34 33 33 31 30 29 30 29 27 26 24 24 23 22 21 21 21 20 19 18 18
6 8 10 9 7 7 7 7 7 8 9 9 8 7 8 7 10 12 8 6 10 12 8 10 13 14 17 18 18 20 19 17 19 19 17 19 17 15 17 19 19 16 13 15 18 23 30 31 32 35 35 36 37 37 39 41 41 41 40 40 38 38 39 39 38 36 34 35 34 32 31 31 29 28 27 26 25 25 23 22 22 22 21 20 19 18
7 9 11 9 7 7 7 8 8 9 10 9 7 6 7 8 8 10 8 7 8 9 8 11 12 13 16 18 18 20 20 18 19 21 19 20 18 16 17 18 18 16 13 15 15 18 27 31 31 33 34 37 39 38 40 40 41 41 40 41 40 40 40 40 40 38 35 35 36 33 31 31 29 28 28 27 25 24 24 23 22 22 23 22 20 19
7 7 10 10 8 9 9 10 10 9 8 8 8 6 8 10 6 6 6 6 7 6 8 13 10 9 11 13 15 19 19 17 19 22 20 20 20 19 20 18 18 18 16 17 17 16 22 28 29 30 33 37 38 38 39 39 40 41 41 42 42 41 41 41 41 40 37 34 34 33 32 31 28 27 27 26 25 24 24 24 23 23 24 23 21 20
7 5 9 11 11 12 11 12 12 8 6 9 11 9 10 12 9 8 6 4 6 5 7 11 6 3 7 10 13 13 14 16 18 20 18 18 20 20 20 19 19 20 19 19 19 17 18 23 28 30 33 36 37 37 40 41 42 42 42 43 43 43 42 41 41 41 38 34 33 31 29 28 26 23 24 26 26 25 25 24 23 24 25 24 21 20
10 6 9 13 13 13 12 12 13 10 6 7 12 14 14 15 12 10 7 4 3 4 5 10 6 3 6 10 13 11 11 14 16 18 19 18 18 17 17 18 18 19 20 19 21 19 18 21 28 31 32 34 36 38 42 44 44 43 43 43 43 43 42 42 41 41 39 36 34 32 29 28 26 24 25 28 29 28 27 26 24 24 26 24 21 20
9 9 9 12 14 15 14 11 13 11 7 6 9 11 15 16 13 11 9 4 3 4 5 9 8 4 5 8 12 14 15 15 15 18 19 17 17 17 16 17 17 17 17 18 19 20 19 21 24 27 32 35 36 40 43 44 44 43 42 42 43 43 42 42 41 41 40 37 36 35 33 32 30 28 29 31 32 31 29 28 25 25 26 24 21 21
8 12 12 13 13 14 12 10 12 11 8 8 7 8 11 15 16 15 11 6 5 4 5 6 5 3 5 10 12 15 17 15 14 17 18 17 18 19 18 18 19 19 18 17 18 19 19 20 23 28 33 37 39 40 41 41 43 43 42 43 44 43 42 42 42 42 41 39 37 37 35 32 32 32 31 32 32 31 30 28 26 26 26 23 21 21
8 13 16 16 13 10 9 10 12 12 9 8 7 8 10 13 16 15 10 7 6 4 5 6 3 1 4 8 9 12 16 16 15 17 18 19 20 21 21 21 20 20 20 19 19 20 20 21 27 33 37 39 40 40 40 41 43 43 43 43 43 42 42 42 43 43 42 41 39 38 35 33 32 32 31 31 32 31 30 28 27 27 26 24 23 22
6 10 15 15 12 9 9 11 13 13 10 8 8 9 10 11 12 11 9 7 5 5 7 8 7 4 5 4 7 8 12 15 15 16 17 18 21 21 21 21 21 19 19 19 20 21 21 26 32 37 39 40 40 41 43 43 43 43 42 41 41 40 41 42 43 44 43 42 39 38 37 35 33 32 30 30 31 31 30 30 29 29 27 26 25 23
7 6 8 11 11 10 10 11 13 15 14 10 8 8 8 9 7 5 4 5 4 5 8 10 12 10 6 5 8 10 13 17 15 14 15 16 18 21 20 20 20 19 17 18 19 20 22 29 35 36 36 38 39 41 42 42 42 43 42 42 42 41 41 42 43 44 44 43 40 39 39 37 35 33 30 29 30 31 31 31 31 30 29 28 27 25
11 8 6 6 8 10 10 10 12 15 17 12 6 6 6 6 4 4 3 3 5 6 7 10 13 14 10 6 8 13 16 21 19 16 17 18 19 20 20 19 20 19 18 18 18 18 19 22 26 28 31 35 37 37 38 40 41 42 43 44 43 42 42 42 43 44 43 42 41 40 40 39 37 35 33 32 31 32 33 33 32 31 30 30 28 26
9 10 9 7 7 10 10 8 9 10 13 12 7 6 6 4 3 6 5 3 5 6 6 9 12 12 10 7 11 17 18 17 18 18 20 21 20 19 19 20 18 18 18 18 17 17 17 17 18 21 26 31 33 35 38 40 40 41 42 44 44 43 43 42 42 43 43 42 42 41 40 40 38 36 36 35 33 33 34 34 33 32 32 32 31 30
4 7 10 11 8 8 10 8 7 7 8 11 9 7 7 6 5 8 6 4 4 6 6 8 9 6 5 6 11 19 20 18 17 18 21 22 21 19 20 19 18 18 18 17 17 17 16 17 17 20 26 30 32 36 39 40 40 40 41 43 44 44 45 44 43 44 43 43 43 42 41 40 39 37 37 37 36 34 34 34 35 35 34 34 34 34
6 6 8 12 8 7 11 10 8 7 7 10 8 7 6 7 6 7 5 4 4 5 5 5 6 5 4 6 11 17 20 18 18 19 19 19 18 17 17 17 17 18 18 16 17 17 18 19 19 21 27 31 34 37 39 39 40 40 40 43 44 43 44 44 44 44 44 44 43 42 41 40 39 38 37 38 37 36 35 35 35 36 36 35 35 35
10 9 7 11 9 9 11 9 8 7 6 8 6 6 7 7 5 3 4 5 4 3 4 3 4 5 5 6 10 16 19 19 19 19 18 16 15 15 13 15 16 17 17 17 16 17 19 19 20 23 27 31 34 37 38 39 40 41 40 42 44 44 44 45 44 44 44 44 43 42 41 40 39 38 37 36 36 36 37 36 36 37 36 36 35 36
8 8 8 10 10 12 12 8 9 9 6 5 6 8 6 6 7 4 4 3 2 3 5 4 4 4 3 5 6 10 15 17 17 18 18 17 16 16 14 15 16 16 17 17 17 17 18 18 20 24 29 31 33 35 38 40 42 43 42 42 43 43 43 44 45 44 44 43 42 41 42 41 40 39 37 37 36 36 36 37 37 38 37 36 37 37
5 5 8 11 13 14 14 11 11 10 8 5 6 8 4 5 5 4 2 3 4 5 5 4 7 5 3 6 4 6 12 15 15 17 17 17 17 17 16 17 17 18 18 18 19 18 18 18 19 23 29 33 36 38 40 43 43 44 43 43 43 42 42 43 44 44 44 43 42 41 41 41 40 39 38 37 37 36 36 36 37 37 38 38 38 38
5 4 6 11 14 12 10 11 11 10 11 8 6 6 5 4 5 3 4 5 6 6 4 5 7 5 5 6 3 7 12 14 15 15 16 18 19 18 18 18 18 18 17 17 18 17 17 18 18 22 28 33 37 39 41 43 42 42 42 43 44 44 45 45 44 43 43 43 42 41 41 41 40 39 38 37 36 35 36 38 38 38 38 39 39 39
6 4 5 7 11 11 8 8 9 9 10 8 5 4 4 5 6 4 4 5 5 5 4 5 5 5 6 6 6 9 12 13 14 14 16 19 21 19 18 17 17 17 16 15 16 16 17 19 20 25 30 33 36 38 39 40 40 41 41 41 42 43 43 44 44 43 42 42 41 40 40 40 39 38 38 37 36 36 37 39 39 39 39 39 40 40
4 5 5 5 6 8 7 7 9 10 9 8 7 7 5 3 3 4 4 3 5 5 4 4 5 6 5 5 9 11 11 13 15 16 17 20 21 21 19 18 17 17 16 16 16 16 18 18 19 26 32 33 34 35 35 37 39 39 39 40 41 41 41 42 42 42 42 41 41 39 39 39 39 38 37 37 36 37 38 39 40 41 40 40 40 40
5 4 6 6 6 7 6 6 11 14 12 10 9 9 8 5 4 5 5 3 2 5 5 5 5 7 6 4 8 10 9 11 14 16 17 18 21 20 18 19 18 17 17 17 17 17 17 17 17 21 27 28 28 30 33 36 36 37 38 40 40 41 41 42 42 42 42 40 40 40 39 39 38 38 38 37 37 38 38 39 41 41 41 41 41 41
9 5 6 8 8 8 8 7 10 17 17 13 11 10 8 6 5 6 6 3 2 4 4 4 4 7 6 5 7 9 8 9 12 16 16 17 19 19 19 19 19 18 18 18 18 17 16 15 15 18 22 24 26 30 33 35 35 38 40 39 39 40 42 43 43 43 42 40 40 40 40 39 38 38 38 38 38 39 39 40 41 41 41 42 42 42
8 5 7 8 7 8 10 8 6 12 15 13 12 11 9 8 7 6 6 4 3 5 3 3 6 7 6 6 7 7 6 7 8 12 15 14 15 17 20 20 18 18 19 19 18 16 14 14 13 14 16 19 23 28 31 34 35 37 37 37 39 41 42 42 41 41 41 40 40 40 40 39 38 38 39 39 39 40 41 41 40 41 42 42 42 42
8 7 7 6 6 8 10 8 6 7 10 10 9 12 14 13 10 6 4 4 3 6 6 5 7 7 6 5 7 9 7 5 4 7 11 12 13 15 17 17 17 18 18 18 17 15 14 13 12 13 14 16 21 26 29 33 34 35 36 38 39 40 40 41 41 40 41 41 40 40 40 40 39 39 40 40 40 41 42 41 40 41 42 42 42 42
8 8 8 8 10 10 9 9 7 6 7 7 8 13 17 16 15 9 4 5 6 5 6 6 6 6 7 5 8 14 15 8 5 4 7 9 12 14 14 14 15 16 17 18 17 15 14 12 12 15 15 16 21 26 29 31 33 34 36 38 39 38 38 40 40 40 40 40 40 40 40 41 40 41 41 42 41 41 42 41 41 41 42 42 42 42
5 7 11 15 14 12 11 8 6 6 8 9 8 12 16 17 17 12 6 6 6 4 4 6 5 4 7 7 8 13 16 12 9 6 7 7 10 12 13 14 14 14 15 16 16 15 14 13 15 16 16 17 22 27 30 32 34 35 35 36 37 38 38 40 40 39 40 40 40 40 41 42 42 42 42 43 42 42 42 42 41 41 42 42 42 41
3 5 10 18 18 15 15 13 9 8 10 13 12 12 16 18 17 14 11 8 7 6 8 8 6 6 8 8 9 13 14 10 8 7 7 9 9 9 10 12 12 13 14 14 14 15 15 15 16 17 16 17 21 27 30 31 34 35 35 36 37 37 38 39 39 40 40 40 40 40 42 43 43 43 43 43 42 42 41 42 42 41 41 41 41 41
2 5 8 15 20 18 17 18 17 10 8 12 14 14 17 19 19 17 14 9 10 8 10 8 9 9 8 7 9 12 12 8 7 9 8 9 9 8 6 8 11 13 14 15 15 15 15 16 16 17 17 17 18 22 26 28 31 32 33 34 36 37 39 40 40 39 39 39 40 41 42 42 42 42 42 42 42 42 42 42 42 41 40 40 41 41
3 5 6 9 17 20 18 18 20 16 9 9 12 14 17 20 21 20 16 12 12 11 8 9 11 10 7 8 9 10 9 7 6 6 6 8 10 11 9 9 12 14 15 16 17 16 16 16 16 16 16 15 15 19 22 25 28 31 32 34 36 38 39 40 40 39 39 40 42 42 41 41 41 41 41 42 42 42 42 42 41 40 39 39 40 40
4 4 8 8 9 17 19 18 19 19 14 10 10 12 15 18 20 20 16 12 9 8 7 9 11 10 7 7 8 8 7 5 3 4 5 7 9 12 13 13 15 17 16 16 16 15 15 15 15 15 15 15 16 19 23 25 28 31 32 33 35 38 40 40 39 39 40 41 41 40 40 41 41 40 41 42 42 42 43 42 41 39 38 38 39 39
5 5 8 8 4 10 16 20 20 19 14 11 11 12 12 14 15 15 13 10 8 8 8 7 8 7 8 8 8 7 7 6 6 6 5 6 6 8 10 12 13 14 14 13 12 11 12 13 14 15 15 15 17 21 24 27 28 29 31 33 37 40 39 39 39 39 40 41 39 38 39 40 40 40 41 41 42 42 42 41 39 38 38 38 38 39
5 6 6 5 4 6 13 19 18 15 12 12 12 12 10 9 9 8 9 12 12 10 9 8 8 8 8 8 9 8 7 7 7 6 4 6 7 8 9 9 10 11 12 12 11 11 12 12 12 14 15 15 18 25 30 31 29 30 34 38 40 39 38 39 40 40 40 40 38 39 40 40 40 40 41 41 42 41 40 39 38 38 38 39 39 39
7 7 5 2 2 7 9 14 13 10 12 10 6 10 13 11 10 7 6 8 10 8 5 4 6 8 9 9 10 9 6 5 4 1 4 2 4 7 9 11 11 12 12 13 14 14 14 13 12 12 15 19 25 30 34 34 34 37 40 40 39 38 38 39 40 40 39 38 39 40 41 40 40 41 41 41 41 39 38 38 39 38 39 39 39 38
9 7 6 3 3 6 6 9 12 11 11 6 3 6 12 13 13 9 2 3 4 5 2 2 1 4 5 6 8 8 8 7 6 9 11 8 4 2 6 8 9 10 10 11 12 13 13 13 13 12 15 23 30 33 32 32 35 37 37 36 36 38 40 40 39 38 38 38 39 40 40 40 40 41 40 40 39 38 38 38 38 39 39 39 39 39
11 8 6 4 3 4 4 5 9 8 5 3 5 1 6 9 11 9 5 6 7 5 2 5 3 2 2 2 4 7 11 13 13 11 10 10 8 5 2 2 3 4 7 8 9 10 10 11 14 16 21 27 30 29 29 33 37 37 34 34 35 37 39 39 37 37 37 37 38 40 40 41 40 40 39 39 39 38 38 39 39 39 39 38 38 38
13 8 5 4 4 3 3 4 3 2 0 2 2 1 3 6 9 10 5 3 7 5 1 7 7 5 5 3 2 3 8 11 12 9 10 12 10 8 7 7 5 4 5 6 6 8 11 15 18 20 24 26 27 28 31 35 37 35 32 32 33 34 36 35 34 35 36 37 39 40 41 41 40 39 38 38 39 40 40 40 40 39 39 37 37 37
13 11 6 4 3 2 3 3 2 4 4 4 4 4 3 7 11 12 8 1 6 6 3 4 7 4 4 4 3 1 4 8 7 4 7 10 9 9 9 9 8 7 6 7 6 6 10 15 20 22 22 21 22 28 32 32 32 31 28 28 30 30 30 31 33 36 37 38 39 40 41 41 40 39 39 39 40 41 41 40 39 39 39 39 38 38
7 10 7 4 3 3 3 4 3 4 5 6 5 4 5 10 12 11 9 1 5 6 6 3 7 5 4 6 6 5 6 5 1 2 5 7 7 8 8 9 9 8 7 7 7 6 10 14 16 18 19 18 20 26 28 26 26 26 24 26 29 29 28 29 34 37 38 41 42 41 41 41 41 40 40 40 41 41 40 40 40 39 40 40 39 37
5 1 2 2 3 5 4 4 3 2 2 3 0 2 2 7 11 9 5 4 4 5 5 4 7 6 5 6 8 8 7 3 2 2 4 4 5 7 8 9 9 9 8 10 12 12 10 12 12 11 12 15 20 24 24 25 25 24 24 26 27 26 28 33 39 41 42 42 40 40 41 42 43 43 42 42 41 40 40 39 38 39 39 37 36 35
4 3 2 1 2 5 4 4 2 1 1 7 11 13 9 1 8 5 5 6 2 2 4 6 8 7 7 8 8 6 4 3 2 1 4 5 7 8 8 7 7 8 9 9 12 16 14 9 7 10 13 14 14 12 11 15 19 20 24 26 25 27 33 40 41 40 39 38 37 39 41 42 43 44 43 43 41 38 38 38 38 38 37 35 34 33
3 3 3 3 4 5 4 3 2 3 4 13 19 17 9 1 5 5 4 3 6 7 6 8 9 8 9 10 8 6 5 4 4 4 5 7 8 8 9 10 9 10 11 12 14 15 13 11 8 3 6 10 12 11 10 12 11 11 13 14 18 28 37 40 38 36 35 35 36 38 40 41 42 43 41 40 39 37 36 37 37 37 36 35 34 33
2 2 4 4 2 4 4 3 2 3 4 17 20 12 4 2 5 7 6 6 6 8 8 9 8 6 8 9 8 6 6 6 6 6 7 8 9 8 9 11 10 9 10 11 14 15 11 7 7 8 7 2 5 11 15 17 14 10 8 9 14 20 21 22 28 32 33 34 35 37 39 40 40 40 39 38 39 38 37 36 35 35 35 34 33 32
1 1 3 1 1 1 2 3 4 2 8 15 13 5 4 5 4 7 9 7 6 7 7 7 7 6 7 9 8 7 8 8 8 7 7 9 10 9 10 11 11 10 10 10 13 16 13 8 7 9 11 8 4 6 11 15 15 12 11 12 16 17 15 16 22 27 28 30 32 33 35 37 38 38 37 38 39 37 35 34 34 33 33 34 33 30
1 1 2 2 1 1 2 3 4 5 9 11 10 6 6 9 8 9 11 9 6 5 5 6 7 7 7 9 9 9 9 8 9 10 9 10 10 9 10 11 11 10 11 11 14 16 14 10 10 12 14 14 11 4 4 10 13 13 12 14 18 20 19 19 23 25 26 28 30 32 33 33 35 36 37 38 39 37 35 34 33 31 30 30 29 26
2 1 2 2 1 1 3 4 4 7 11 12 11 10 10 9 7 9 12 10 7 7 7 7 8 7 7 8 9 9 8 8 9 10 9 9 9 9 9 9 10 10 10 10 13 15 13 12 12 12 13 16 16 12 7 1 4 7 10 15 18 20 22 22 23 25 25 25 27 30 32 32 31 33 35 36 37 37 36 35 32 29 27 25 24 22
1 1 1 1 1 0 1 3 3 6 10 12 11 11 13 12 9 7 11 10 8 9 9 9 9 9 8 9 10 9 7 7 8 8 7 7 8 9 9 9 8 9 9 9 11 12 10 9 10 10 11 13 16 15 12 7 5 4 4 10 13 16 21 24 24 25 25 25 24 25 28 30 31 30 32 33 33 32 31 32 31 28 26 24 23 21
2 3 2 1 1 1 2 4 2 3 6 11 11 9 9 11 10 8 8 10 10 10 10 9 9 9 9 9 9 10 9 7 7 7 7 7 8 8 8 9 8 8 9 11 11 10 9 7 8 8 8 9 12 14 14 10 7 5 3 5 7 10 15 20 22 22 25 26 24 19 19 23 29 31 30 29 30 30 28 29 30 28 27 26 25 24
3 4 1 1 1 1 2 3 1 3 6 10 12 11 10 9 8 7 6 8 11 12 11 11 9 9 10 10 9 10 11 8 7 8 8 8 9 9 8 8 8 8 9 11 10 9 8 7 7 8 8 8 10 12 12 12 9 5 2 2 5 8 13 18 19 18 20 23 23 21 20 20 24 31 34 32 30 29 27 27 30 29 27 25 25 24
2 3 1 2 2 2 1 1 2 3 2 5 7 10 12 11 9 7 5 5 8 9 10 12 11 10 11 10 9 10 11 8 7 9 10 9 9 10 10 10 9 8 9 11 11 9 8 7 7 8 8 8 9 11 12 13 13 10 6 3 2 3 12 19 23 22 21 22 25 28 29 26 22 26 34 37 35 31 28 25 26 27 26 24 22 22
2 3 2 1 1 2 1 2 2 4 3 3 5 8 10 11 10 7 6 7 7 5 6 10 12 11 10 9 8 10 11 8 8 9 11 10 9 10 11 12 11 10 11 12 11 10 10 10 9 10 10 10 10 11 13 14 16 17 15 14 16 13 3 11 18 25 27 25 25 26 29 28 24 22 26 33 35 35 31 26 22 21 21 21 20 19
Wind_Direction
173 206 228 220 217 211 220 216 211 223 226 236 241 237 247 257 264 257 263 227 172 173 187 171 166 168 166 169 168 170 172 168 169 171 172 175 175 176 179 180 183 190 194 189 190 192 191 189 186 184 184 184 185 186 186 187 187 188 189 190 193 195 196 195 195 198 199 198 197 199 200 202 206 208 207 207 209 215 216 216 217 218 221 222 220 220
175 209 227 218 210 207 220 224 213 222 234 243 242 248 255 250 258 259 271 258 187 176 196 176 163 170 172 172 168 166 171 172 173 174 175 177 178 179 181 183 185 189 190 183 185 188 189 189 186 184 184 183 185 186 187 187 187 188 189 190 192 194 195 195 195 196 198 198 198 199 199 201 204 205 206 207 208 212 218 219 219 220 222 221 219 217
206 220 222 209 203 209 223 230 225 227 231 241 241 246 257 247 261 270 275 268 214 181 185 176 167 176 177 176 173 168 174 179 176 177 177 177 179 181 183 185 185 185 183 184 185 184 187 189 185 183 184 185 186 187 188 189 188 188 189 191 192 193 194 195 196 196 197 199 199 199 200 201 203 205 208 209 208 211 217 219 220 222 222 220 218 215
212 217 209 197 195 207 222 229 230 236 230 235 237 231 250 247 248 264 265 256 233 210 185 175 170 180 177 177 181 176 175 178 178 179 178 177 179 182 185 184 182 182 184 188 189 183 185 189 186 184 184 186 186 187 188 189 189 189 191 191 192 193 194 196 197 198 198 198 200 201 201 201 202 205 207 208 210 212 216 217 220 222 219 217 216 213
218 197 193 198 200 204 216 225 223 228 230 233 233 227 241 247 236 235 259 272 250 245 188 163 148 192 186 178 188 187 176 174 179 180 180 183 184 182 184 185 183 183 184 187 190 187 184 187 189 187 185 185 186 187 188 190 190 191 192 192 192 193 194 196 197 198 197 196 198 198 200 202 204 205 205 206 209 213 216 217 218 219 216 214 214 213
226 204 188 201 207 206 212 222 219 215 222 237 236 231 236 245 245 240 259 293 258 258 203 157 145 239 223 190 186 186 180 177 179 181 182 186 187 184 184 186 187 187 187 187 188 188 185 186 189 188 186 185 187 189 189 190 192 192 192 192 192 192 193 195 196 196 196 195 196 195 196 199 202 204 205 206 208 211 215 217 217 216 214 212 212 212
222 207 199 205 205 209 212 218 219 209 210 235 228 228 240 247 252 249 254 268 205 237 229 182 176 207 225 212 193 182 182 183 180 183 185 185 186 187 186 187 189 189 189 190 190 189 186 185 186 188 187 187 189 192 191 191 192 192 192 191 192 193 193 194 195 195 195 195 197 198 198 200 201 204 206 208 208 209 212 214 215 213 211 210 211 211
194 198 210 214 207 211 214 215 217 202 207 235 211 204 237 247 251 249 248 247 222 245 274 230 195 147 191 215 204 184 182 184 183 186 187 186 188 190 189 188 188 189 189 189 192 191 189 186 186 188 190 190 191 192 191 191 192 192 192 192 193 194 193 194 194 194 195 196 197 199 200 202 203 205 207 208 208 209 210 211 210 209 207 208 211 212
181 194 206 212 215 217 213 214 213 201 212 237 210 198 222 238 249 248 243 245 223 217 269 249 187 139 227 217 206 190 184 187 192 192 189 187 190 191 192 190 188 190 189 187 190 192 191 189 189 190 191 192 192 191 191 191 192 192 192 192 192 193 193 193 193 194 196 197 197 198 199 202 205 207 208 208 207 207 208 208 206 205 205 207 210 212
192 199 201 205 219 220 209 215 214 206 217 226 206 211 227 234 246 249 240 242 218 196 231 224 183 208 270 229 198 199 192 194 199 197 193 189 191 193 193 191 189 189 189 189 191 192 192 192 192 192 192 193 192 191 192 192 192 192 191 190 190 191 192 192 193 194 196 197 198 198 199 202 205 206 208 208 206 205 206 205 204 204 206 208 209 210
225 220 202 202 216 215 202 208 213 212 216 214 196 210 238 245 250 262 243 219 216 224 230 215 189 195 245 237 195 197 194 193 196 199 198 192 191 194 193 192 190 189 189 191 192 193 194 194 193 192 192 192 192 192 192 191 191 190 190 190 190 191 192 193 194 195 196 197 199 199 200 202 204 204 204 203 203 202 201 201 203 205 207 209 208 205
236 241 230 214 211 207 202 208 213 211 213 215 197 188 226 260 274 281 270 194 209 240 239 217 195 194 219 233 201 207 205 194 189 192 195 196 196 195 193 192 190 189 189 190 191 193 193 194 193 191 192 192 191 190 190 190 190 190 190 190 191 192 192 193 194 195 197 198 200 202 202 203 204 203 202 201 201 200 199 199 202 204 206 208 205 201
236 237 237 241 226 205 200 208 216 211 208 210 195 171 193 223 247 244 245 226 217 241 240 206 194 200 216 216 198 207 215 206 196 193 194 197 197 194 193 192 189 188 188 188 190 191 190 192 192 190 192 192 190 190 190 190 190 190 190 190 191 193 193 193 194 195 198 199 202 203 204 204 205 203 203 202 202 201 199 200 201 202 203 203 201 198
256 256 236 236 239 216 204 201 207 211 202 204 194 171 185 194 208 224 234 250 234 248 244 196 189 209 227 221 200 201 210 209 202 201 200 198 194 192 193 191 188 187 187 189 190 189 190 190 191 191 191 191 191 191 190 190 190 190 191 191 192 193 194 194 194 196 198 201 204 205 205 206 205 205 205 204 204 202 201 201 202 203 203 202 201 199
226 252 226 220 222 207 211 208 194 184 187 206 192 161 186 192 193 207 208 218 225 252 262 204 189 195 196 217 202 196 204 205 204 206 204 201 194 189 190 188 187 189 189 190 190 189 190 190 190 191 191 192 193 192 190 190 190 190 191 192 192 193 193 194 195 196 198 202 205 206 207 207 207 207 206 206 206 205 203 202 202 203 204 204 204 203
215 239 232 225 221 205 214 209 180 168 184 206 175 158 201 190 171 200 201 189 181 224 256 223 206 206 205 227 207 196 200 198 203 207 202 200 195 187 187 187 189 192 191 190 190 190 191 191 191 191 192 194 194 192 191 190 190 191 191 192 193 193 194 195 196 197 199 202 205 206 207 208 208 208 208 207 208 207 206 205 204 204 206 208 208 206
200 237 237 229 235 223 220 210 186 181 183 199 186 189 195 148 154 211 253 239 166 210 241 223 242 279 283 267 238 206 203 197 198 203 199 195 191 188 192 192 191 192 191 191 190 191 191 190 193 194 193 193 193 192 192 192 192 192 192 192 193 194 194 195 196 198 200 202 204 206 207 208 208 208 208 208 208 208 208 208 207 207 208 210 209 205
175 242 237 219 234 233 222 222 219 198 168 166 201 200 151 108 157 181 208 245 218 226 256 232 235 261 251 255 261 203 205 203 197 197 196 192 190 193 196 196 194 190 190 191 190 191 191 191 194 195 194 194 193 193 193 193 193 193 193 193 193 193 194 196 197 198 200 201 203 206 207 208 208 208 208 209 209 208 208 207 207 207 208 209 207 204
178 253 261 217 223 230 219 218 232 222 191 181 190 187 160 163 190 179 180 206 211 221 263 258 239 227 206 231 240 196 202 204 197 193 192 191 193 199 199 198 197 192 189 191 191 191 192 193 194 194 195 195 195 194 194 193 193 193 194 194 193 194 195 196 197 199 200 201 202 205 207 208 208 208 209 209 209 208 207 207 206 206 206 205 204 203
184 216 264 235 219 218 211 205 216 226 212 196 181 181 183 184 186 192 191 180 185 207 228 239 241 236 218 210 206 212 208 199 194 191 192 196 198 200 200 198 198 196 192 191 193 194 193 195 196 194 195 195 194 194 193 191 192 193 194 194 194 196 196 196 197 198 200 201 203 204 206 208 208 208 209 209 208 207 207 207 206 205 205 203 203 203
190 196 231 267 245 216 211 205 197 201 206 201 196 198 200 183 168 193 208 168 157 178 193 208 232 252 246 201 195 213 211 198 196 193 195 201 202 201 199 198 198 197 195 192 193 195 195 196 196 195 196 195 192 192 190 190 192 193 193 194 194 195 195 196 197 198 199 201 202 203 205 207 208 208 208 209 208 208 208 208 208 207 205 204 204 205
194 202 214 244 253 228 225 214 191 191 198 200 203 203 192 170 139 179 236 276 151 173 177 185 233 260 252 197 194 212 210 200 200 198 200 203 202 202 200 198 199 196 196 197 195 197 197 195 194 195 195 192 188 187 189 191 192 192 193 194 194 194 195 197 197 198 199 199 201 203 204 206 207 207 208 208 209 209 209 209 208 207 206 206 207 206
187 190 208 224 240 237 233 229 203 198 198 197 206 205 186 174 153 171 220 258 229 217 183 164 233 264 252 206 204 221 209 199 205 201 204 207 202 201 199 198 199 196 196 198 199 200 198 193 191 190 188 186 185 187 189 190 191 193 195 194 193 195 197 197 197 198 198 199 200 202 203 204 205 206 207 208 209 210 210 210 209 207 207 208 208 208
187 195 206 218 246 254 248 256 249 214 200 200 209 201 189 194 177 167 188 173 198 230 191 184 238 261 267 225 222 242 203 185 214 210 203 208 204 200 199 196 197 197 196 198 199 201 199 192 185 182 184 186 187 187 188 189 192 194 194 193 193 196 197 197 197 197 197 198 199 201 202 203 204 205 206 208 209 210 211 210 209 208 208 208 209 209
200 197 183 192 219 241 247 252 261 234 213 209 206 198 200 197 174 164 175 155 218 228 177 187 234 253 277 237 221 252 237 183 220 219 199 205 206 200 198 195 194 195 196 196 196 198 194 185 179 180 184 186 186 187 188 191 193 194 193 194 195 197 196 196 196 196 196 197 198 199 200 202 202 204 205 207 209 210 211 210 209 208 208 208 209 209
223 198 176 190 205 210 222 230 221 204 211 222 203 195 201 195 181 177 168 180 225 227 168 189 229 254 284 254 209 237 247 245 254 219 179 196 208 198 191 193 195 194 195 194 193 194 189 180 180 185 186 186 186 186 188 191 193 194 195 196 196 196 195 195 196 195 195 196 197 198 199 201 202 203 205 207 209 210 211 210 210 209 209 209 209 209
252 218 200 200 206 207 207 220 211 165 184 215 205 194 199 198 192 183 176 197 198 176 197 211 195 212 260 247 211 227 241 250 256 221 170 181 204 198 193 195 194 193 195 195 193 191 185 181 185 188 187 187 188 188 188 190 192 194 195 196 196 196 194 195 196 195 195 196 197 198 199 200 202 203 205 207 209 210 211 211 210 210 209 210 209 209
295 276 235 209 207 207 203 213 214 174 183 204 199 192 198 200 194 189 202 200 149 155 231 225 178 197 240 239 223 230 235 240 249 232 192 178 186 193 198 196 193 197 198 196 195 191 185 186 189 189 189 189 190 190 190 191 193 194 194 195 195 195 194 195 195 195 195 196 197 199 200 201 202 204 205 207 208 210 211 211 211 211 210 210 209 210
275 280 265 223 214 208 201 210 215 201 188 200 199 192 194 199 198 200 207 186 150 184 223 202 181 206 233 239 234 238 239 230 228 228 213 189 171 158 167 185 198 209 203 195 197 194 190 192 191 189 190 189 189 191 191 193 194 194 195 195 194 194 195 195 196 196 195 196 199 201 201 201 202 204 205 206 208 209 211 212 212 212 211 210 210 211
291 270 288 251 223 210 203 208 215 215 199 196 206 199 192 197 201 204 208 189 179 202 204 178 195 215 222 223 226 238 244 232 213 208 204 194 175 157 154 177 203 212 207 201 199 195 194 194 191 189 189 188 190 191 191 193 193 193 195 194 193 195 197 196 196 197 196 198 202 201 200 201 202 203 204 206 207 209 210 212 212 212 211 210 211 211
334 297 314 306 240 213 207 203 210 218 204 189 208 209 198 200 200 204 208 194 187 210 201 183 204 229 245 231 224 235 240 220 171 159 180 190 176 166 171 187 204 209 206 206 204 199 198 194 189 188 186 187 191 191 192 194 194 195 196 195 195 197 197 196 196 198 199 201 203 200 199 200 201 202 204 206 207 209 210 211 211 211 211 211 211 211
315 296 318 332 289 224 210 202 208 218 213 205 214 211 202 201 200 203 203 188 181 195 195 191 204 232 251 243 234 233 218 193 170 160 180 193 166 163 180 192 203 205 201 204 206 202 201 196 191 188 186 188 190 190 194 195 194 195 195 195 197 198 197 196 197 199 202 203 202 199 199 201 201 201 204 205 207 209 210 210 210 210 211 210 211 211
285 291 318 342 323 263 215 200 203 210 217 229 223 199 189 197 202 210 209 201 197 185 181 202 213 215 219 220 223 221 203 200 198 178 191 205 179 168 177 184 193 196 193 194 195 194 197 198 196 192 189 188 188 192 197 196 193 195 198 198 199 197 194 196 199 201 203 203 201 199 201 201 200 201 204 205 207 209 209 209 209 210 210 210 211 211
265 275 290 299 310 282 229 187 179 199 217 233 215 170 174 188 188 192 214 220 220 210 191 213 229 218 209 201 203 204 195 203 211 106 34 328 213 190 180 179 184 189 190 191 192 192 192 191 193 194 192 191 193 198 200 197 196 200 201 200 197 194 195 198 200 202 203 202 200 200 201 200 200 202 204 205 207 207 208 208 209 209 210 211 211 211
264 268 274 243 213 274 258 162 167 205 217 236 268 185 178 178 167 154 108 349 285 260 222 68 312 247 222 202 185 165 140 117 80 52 40 24 349 236 196 194 189 183 185 192 196 197 192 188 189 191 195 198 200 201 199 198 201 204 204 200 196 194 196 199 200 202 202 202 201 201 201 200 201 202 203 204 205 206 207 208 209 209 209 210 211 211
252 253 254 245 222 264 270 181 184 212 228 301 318 256 151 153 148 124 64 358 324 304 179 146 156 166 153 211 204 151 125 99 68 41 24 20 16 12 355 270 233 201 194 192 193 196 195 193 195 197 201 203 204 202 199 200 203 204 202 200 197 197 199 199 200 202 201 201 202 201 201 201 201 201 202 202 202 204 206 207 207 208 209 210 211 212
236 237 241 244 229 220 236 228 198 175 248 321 316 224 163 161 154 132 109 306 306 327 125 147 143 144 144 152 256 190 129 93 65 31 3 3 5 9 14 7 345 301 250 222 203 202 205 205 204 206 207 205 204 203 202 204 204 202 200 198 198 200 200 199 201 202 202 202 202 202 201 201 200 200 200 200 201 203 205 205 206 207 207 208 210 211
230 219 213 222 239 223 194 210 174 151 192 233 243 238 186 133 135 125 107 337 306 333 348 125 121 121 129 98 38 358 93 71 55 20 349 347 350 4 13 10 1 344 308 282 262 238 225 215 211 212 212 208 208 208 207 206 204 199 196 197 197 200 200 201 204 203 203 204 204 202 201 201 200 200 199 199 201 202 203 203 204 205 206 207 209 211
247 207 198 202 249 265 199 196 196 171 206 229 222 211 153 130 123 102 85 20 286 325 345 55 89 74 76 81 66 69 84 81 61 308 330 334 347 7 13 5 1 3 354 333 316 286 250 230 222 222 216 207 209 213 210 206 201 196 196 197 197 198 200 204 207 206 204 205 204 202 201 200 200 200 199 200 202 202 202 201 202 204 205 207 209 211
343 186 178 193 250 265 233 207 202 174 237 250 280 322 222 140 110 89 106 212 264 327 355 53 76 63 61 78 72 69 80 119 189 287 324 332 0 18 23 13 356 354 3 5 358 341 296 245 222 222 224 218 219 219 211 201 195 194 199 201 199 198 202 207 209 209 208 207 204 202 201 200 200 200 199 200 201 201 200 200 200 202 203 205 207 208
340 358 32 51 331 305 261 214 198 145 22 1 355 331 303 147 101 111 192 202 166 52 29 56 72 65 57 67 73 75 81 102 114 15 343 7 26 25 24 20 5 358 359 3 9 6 346 310 250 217 219 225 233 239 223 203 198 201 204 204 200 201 207 210 211 211 209 207 204 202 201 201 200 200 199 199 199 198 198 198 198 199 199 199 200 202
336 351 31 38 358 319 280 242 190 141 57 0 341 322 307 206 161 178 184 150 113 95 68 60 66 67 68 71 79 95 100 84 72 46 21 27 34 26 18 17 17 10 360 358 7 15 9 354 341 292 233 228 225 219 205 199 207 221 223 220 214 212 213 212 211 210 209 207 204 203 201 201 200 198 197 196 194 192 192 195 196 195 194 193 192 194
338 9 37 31 350 307 301 328 63 145 338 341 333 323 352 69 176 157 114 93 91 85 79 72 61 59 75 79 76 80 80 66 54 44 31 29 31 29 26 23 19 10 1 359 0 3 8 15 15 21 30 36 206 200 190 184 185 196 207 223 231 232 233 226 214 208 207 206 204 202 201 199 198 195 192 190 188 186 186 189 190 189 188 187 187 188
343 59 77 66 330 307 309 345 25 332 311 327 329 324 35 54 114 121 102 93 80 71 78 79 59 50 71 80 72 61 55 49 42 38 38 36 30 26 26 24 21 15 5 358 354 356 4 14 14 23 37 50 90 166 182 180 177 179 186 199 213 223 234 234 220 210 206 204 201 200 199 196 193 189 186 184 182 180 180 181 182 183 184 184 184 184
26 66 133 171 231 211 227 268 313 324 321 332 340 352 41 64 82 93 94 93 81 68 74 81 71 54 56 69 70 57 47 43 37 33 38 38 31 28 28 24 22 17 9 3 1 2 11 26 28 27 29 26 28 47 182 183 176 177 183 191 198 201 201 206 208 205 201 199 197 195 193 190 186 183 179 177 175 173 174 176 176 177 180 181 179 177
35 55 142 163 244 237 222 249 300 337 337 341 351 3 26 48 67 86 91 89 83 80 80 81 82 70 57 66 74 65 52 49 46 42 40 38 33 28 27 24 20 15 12 10 5 5 17 38 42 41 35 25 21 20 9 309 196 199 198 191 191 191 187 185 189 192 193 194 193 190 185 180 177 175 171 169 170 171 172 173 174 172 171 170 168 168
11 319 120 103 339 333 254 280 334 354 337 342 0 12 18 21 23 59 87 93 92 90 88 89 91 89 79 76 81 79 65 50 51 50 42 39 38 30 24 24 18 11 10 9 6 9 26 49 53 51 45 34 28 27 21 10 349 318 247 206 199 196 189 183 182 181 181 182 184 184 179 172 166 162 161 161 163 166 167 167 167 164 161 159 157 156
319 333 6 56 32 113 225 265 309 37 354 353 5 14 20 24 17 27 70 95 99 96 95 96 97 97 92 85 88 89 77 56 53 57 46 38 37 31 26 23 15 8 8 7 10 23 40 53 58 61 59 47 38 35 31 21 6 343 289 226 214 204 190 182 181 179 173 169 169 169 168 164 157 151 150 151 153 153 154 157 159 158 159 163 164 161
281 302 321 152 232 275 245 257 266 69 23 5 4 3 7 19 19 16 42 84 98 101 100 95 92 93 93 88 85 84 77 61 50 54 53 45 36 28 25 22 16 14 12 8 15 38 60 69 69 69 69 61 52 49 43 33 22 6 318 223 209 205 188 170 164 166 161 150 142 136 132 135 142 145 142 139 138 138 140 147 154 157 159 166 174 179
305 286 252 151 188 230 229 211 160 124 74 19 10 7 5 4 7 7 13 46 77 93 101 100 93 85 82 81 81 81 77 64 49 52 54 48 39 32 27 24 21 19 17 15 18 29 43 60 74 75 72 63 55 53 47 37 32 30 33 56 53 249 211 179 153 140 137 131 127 129 129 128 132 138 136 132 128 125 124 131 144 154 160 165 174 186
322 277 270 246 230 244 298 52 93 118 110 63 39 35 24 8 357 358 14 29 36 48 79 94 93 85 79 76 76 82 83 72 55 57 56 47 38 37 35 32 30 27 23 22 25 28 28 30 38 45 46 42 42 43 39 37 39 43 49 59 59 44 329 212 165 134 121 117 119 125 130 133 134 132 127 125 124 121 118 118 124 138 153 162 169 176